GW0143 Weather Reports


time (UTC)temp
F
wind
direction
speed
knots
gust
knots
rain 1hr
in
rain 24hr
in
rain mn
in
humidity
%
barometer
mb
20260507232538 58 9 6.1 11.3 0.00 0.00 0.00 32 1016.9
20260507231518 57 30 5.2 9.6 0.00 0.00 0.00 34 1017.0
20260507230518 58 354 5.2 8.7 0.00 0.00 0.00 33 1017.0
20260507225518 57 1 5.2 7.8 0.00 0.00 0.00 33 1017.1
20260507224519 57 21 6.1 9.6 0.00 0.00 0.00 34 1017.2
20260507223518 57 301 3.5 7.8 0.00 0.00 0.00 32 1017.3
20260507222559 57 25 5.2 7.8 0.00 0.00 0.00 34 1017.3
20260507221539 57 350 3.5 6.1 0.00 0.00 0.00 32 1017.5
20260507220519 56 337 3.5 7.0 0.00 0.00 0.00 32 1017.5
20260507215519 56 316 4.3 7.0 0.00 0.00 0.00 32 1017.7
20260507214520 56 308 3.5 6.1 0.00 0.00 0.00 32 1017.9
20260507213520 55 278 2.6 5.2 0.00 0.00 0.00 31 1018.0
20260507212539 54 69 2.6 4.3 0.00 0.00 0.00 33 1018.2
20260507211520 54 180 4.3 7.8 0.00 0.00 0.00 35 1018.4
20260507210520 53 201 2.6 5.2 0.00 0.00 0.00 35 1018.7
20260507205520 52 195 4.3 9.6 0.00 0.00 0.00 35 1018.8
20260507204541 52 218 4.3 7.8 0.00 0.00 0.00 36 1019.0
20260507203521 51 195 5.2 7.8 0.00 0.00 0.00 36 1019.1
20260507202521 50 181 5.2 7.8 0.00 0.00 0.00 37 1019.2
20260507201521 50 199 5.2 7.8 0.00 0.00 0.00 40 1019.3
20260507200521 49 178 5.2 8.7 0.00 0.00 0.00 39 1019.4
20260507195603 48 193 5.2 7.0 0.00 0.00 0.00 43 1019.5
20260507194522 47 187 5.2 8.7 0.00 0.00 0.00 41 1019.5
20260507193516 47 190 5.2 7.0 0.00 0.00 0.00 40 1019.6
20260507192522 45 198 6.1 7.8 0.00 0.00 0.00 47 1019.8
20260507191522 44 200 4.3 7.0 0.00 0.00 0.00 44 1020.0
20260507190522 44 204 5.2 7.0 0.00 0.00 0.00 49 1020.1
20260507185523 43 203 4.3 6.1 0.00 0.00 0.00 45 1020.2
20260507184517 43 200 4.3 5.2 0.00 0.00 0.00 47 1020.4
20260507183517 43 217 3.5 5.2 0.00 0.00 0.00 54 1020.5
20260507182517 43 203 4.3 5.2 0.00 0.00 0.00 51 1020.5
20260507181517 43 218 2.6 4.3 0.00 0.00 0.00 55 1020.6
20260507180518 43 220 3.5 4.3 0.00 0.00 0.00 53 1020.7
20260507175525 43 203 1.7 2.6 0.00 0.00 0.00 45 1020.8
20260507174524 42 193 2.6 3.5 0.00 0.00 0.00 50 1020.8
20260507173524 41 185 1.7 2.6 0.00 0.00 0.00 50 1021.0
20260507172524 41 172 1.7 2.6 0.00 0.00 0.00 49 1021.0
20260507171525 40 170 1.7 3.5 0.00 0.00 0.00 50 1021.1
20260507170525 40 195 2.6 3.5 0.00 0.00 0.00 48 1021.1
20260507165525 41 158 1.7 1.7 0.00 0.00 0.00 43 1021.1
20260507164525 40 141 1.7 3.5 0.00 0.00 0.00 43 1021.2
20260507163525 39 218 1.7 2.6 0.00 0.00 0.00 44 1021.3
20260507162606 37 230 0.9 2.6 0.00 0.00 0.00 44 1021.4
20260507161526 36 243 1.7 2.6 0.00 0.00 0.00 49 1021.4
20260507160520 37 254 3.5 5.2 0.00 0.00 0.00 53 1021.5
20260507155526 39 233 1.7 2.6 0.00 0.00 0.00 50 1021.4
20260507154546 38 176 0.9 0.9 0.00 0.00 0.00 46 1021.5
20260507153527 38 249 1.7 2.6 0.00 0.00 0.00 52 1021.6
20260507152527 39 285 0.9 1.7 0.00 0.00 0.00 51 1021.6
20260507151547 37 66 0.9 1.7 0.00 0.00 0.00 51 1021.7
20260507150527 34 121 0.9 1.7 0.00 0.00 0.00 56 1021.7
20260507145527 33 170 2.6 3.5 0.00 0.00 0.00 58 1021.6
20260507144528 30 149 1.7 2.6 0.00 0.00 0.00 60 1021.7
20260507143528 29 150 1.7 2.6 0.00 0.00 0.00 60 1021.6
20260507142528 29 245 1.7 3.5 0.00 0.00 0.00 62 1021.6
20260507141528 28 194 2.6 3.5 0.00 0.00 0.00 66 1021.4
20260507140522 30 213 2.6 4.3 0.00 0.00 0.00 61 1021.5
20260507135543 29 146 3.5 5.2 0.00 0.00 0.00 60 1021.4
20260507134523 27 133 5.2 7.0 0.00 0.00 0.00 64 1021.5
20260507133517 26 210 3.5 5.2 0.00 0.00 0.00 67 1021.4
20260507132518 25 138 6.1 7.0 0.00 0.00 0.00 65 1021.3
20260507131517 22 143 5.2 6.1 0.00 0.00 0.00 70 1021.4
20260507130517 20 147 4.3 5.2 0.00 0.00 0.00 72 1021.4
20260507125518 17 131 3.5 4.3 0.00 0.00 0.00 76 1021.5
20260507124519 14 146 5.2 7.8 0.00 0.00 0.00 81 1021.5
20260507123518 13 148 4.3 5.2 0.00 0.00 0.00 81 1021.5
20260507122518 14 152 4.3 5.2 0.00 0.00 0.00 81 1021.3
20260507121530 16 100 1.7 4.3 0.00 0.00 0.00 78 1021.2
20260507120539 15 149 4.3 5.2 0.00 0.00 0.00 78 1021.2
20260507115519 14 167 6.1 8.7 0.00 0.00 0.00 85 1021.1
20260507114519 14 173 4.3 6.1 0.00 0.00 0.00 83 1021.2
20260507113531 15 106 1.7 4.3 0.00 0.00 0.00 83 1021.0
20260507112519 13 141 4.3 5.2 0.00 0.00 0.00 87 1021.1
20260507111519 14 144 3.5 5.2 0.00 0.00 0.00 86 1021.1
20260507110532 15 160 0.9 1.7 0.00 0.00 0.00 84 1021.1
20260507105520 17 141 3.5 4.3 0.00 0.00 0.00 84 1021.1
20260507104520 18 147 4.3 7.0 0.00 0.00 0.00 83 1021.2
20260507103520 18 145 4.3 5.2 0.00 0.00 0.00 83 1021.2
20260507102520 16 134 4.3 7.0 0.00 0.00 0.00 84 1021.3
20260507101522 15 152 5.2 7.0 0.00 0.00 0.00 85 1021.4
20260507100541 15 179 5.2 7.0 0.00 0.00 0.00 86 1021.5
20260507095521 18 188 3.5 5.2 0.00 0.00 0.00 83 1021.6
20260507094533 17 72 0.9 3.5 0.00 0.00 0.00 86 1021.6
20260507093538 15 63 2.6 3.5 0.00 0.00 0.00 85 1021.5
20260507092521 12 182 4.3 7.0 0.00 0.00 0.00 87 1021.6
20260507091522 15 224 3.5 6.1 0.00 0.00 0.00 83 1021.5
20260507090522 15 159 2.6 4.3 0.00 0.00 0.00 86 1021.3
20260507085518 15 119 2.6 3.5 0.00 0.00 0.00 87 1021.3
20260507084519 13 129 2.6 3.5 0.00 0.00 0.00 88 1021.3
20260507083522 14 146 4.3 6.1 0.00 0.00 0.00 85 1021.3
20260507082516 16 129 2.6 4.3 0.00 0.00 0.00 85 1021.2
20260507081517 16 144 3.5 5.2 0.00 0.00 0.00 84 1021.2
20260507080519 16 144 2.6 2.6 0.00 0.00 0.00 86 1021.3
20260507075523 16 155 2.6 5.2 0.00 0.00 0.00 86 1021.4
20260507074544 15 145 4.3 5.2 0.00 0.00 0.00 87 1021.3
20260507073520 18 154 2.6 3.5 0.00 0.00 0.00 84 1021.5
20260507072520 17 113 0.9 1.7 0.00 0.00 0.00 86 1021.6
20260507071620 16 86 0.9 2.6 0.00 0.00 0.00 86 1021.4
20260507070521 17 221 0.9 1.7 0.00 0.00 0.00 87 1021.3
20260507065520 18 241 1.7 2.6 0.00 0.00 0.00 85 1021.2
20260507064521 18 226 2.6 3.5 0.00 0.00 0.00 85 1021.2
20260507063525 21 271 3.5 6.1 0.00 0.00 0.00 80 1021.0
20260507062541 21 114 2.6 4.3 0.00 0.00 0.00 84 1021.0
20260507061543 23 109 1.7 4.3 0.00 0.00 0.00 81 1020.9
20260507060519 22 132 3.5 5.2 0.00 0.00 0.00 81 1020.8
20260507055519 22 126 4.3 5.2 0.00 0.00 0.00 82 1020.7
20260507054519 20 141 5.2 7.0 0.00 0.00 0.00 85 1020.6
20260507053519 19 165 4.3 6.1 0.00 0.00 0.00 85 1020.7
20260507052520 18 189 3.5 6.1 0.00 0.00 0.00 87 1020.6
20260507051543 18 151 1.7 3.5 0.00 0.00 0.00 86 1020.5
20260507050600 20 191 5.2 7.0 0.00 0.00 0.00 85 1020.6
20260507045522 23 211 2.6 3.5 0.00 0.00 0.00 82 1020.7
20260507044520 23 136 5.2 7.0 0.00 0.00 0.00 83 1020.5
20260507043520 22 141 4.3 6.1 0.00 0.00 0.00 84 1020.5
20260507042540 21 129 4.3 6.1 0.00 0.00 0.00 86 1020.5
20260507041521 20 135 4.3 6.1 0.00 0.00 0.00 86 1020.4
20260507040521 19 147 4.3 5.2 0.00 0.00 0.00 86 1020.4
20260507035601 18 161 3.5 5.2 0.00 0.00 0.00 87 1020.5
20260507034521 17 172 4.3 6.1 0.00 0.00 0.00 88 1020.5
20260507033521 18 185 5.2 7.0 0.00 0.00 0.00 87 1020.4
20260507032521 18 166 4.3 5.2 0.00 0.00 0.00 88 1020.3
20260507031522 18 172 4.3 5.2 0.00 0.00 0.00 87 1020.2
20260507030522 19 181 3.5 4.3 0.00 0.00 0.00 87 1020.2
20260507025522 19 192 5.2 6.1 0.00 0.00 0.00 87 1020.1
20260507024516 21 214 2.6 4.3 0.00 0.00 0.00 87 1019.9
20260507023522 22 201 3.5 6.1 0.00 0.00 0.00 86 1019.8
20260507022523 22 132 5.2 7.0 0.00 0.00 0.00 86 1019.8
20260507021543 21 135 4.3 6.1 0.00 0.00 0.00 86 1019.7
20260507020526 22 164 2.6 3.5 0.00 0.00 0.00 85 1019.7
20260507015526 23 174 2.6 3.5 0.00 0.00 0.00 85 1019.6
20260507014523 24 177 4.3 6.1 0.00 0.00 0.00 84 1019.3
20260507013526 26 186 3.5 4.3 0.00 0.00 0.00 83 1019.4
20260507012526 27 160 3.5 4.3 0.00 0.00 0.00 80 1019.3
20260507011518 28 160 3.5 5.2 0.00 0.00 0.00 79 1019.3
20260507010527 28 164 2.6 3.5 0.00 0.00 0.00 80 1019.4
20260507005527 28 177 0.9 0.9 0.00 0.00 0.00 79 1019.2
20260507004527 30 214 1.7 2.6 0.00 0.00 0.00 75 1019.0
20260507003527 31 235 1.7 2.6 0.00 0.00 0.00 69 1018.9
20260507002518 30 244 2.6 4.3 0.00 0.00 0.00 73 1019.0
20260507001519 29 261 4.3 5.2 0.00 0.00 0.00 74 1018.9
20260507000519 30 262 3.5 5.2 0.00 0.00 0.00 76 1018.9
20260506235528 31 288 3.5 4.3 0.00 0.00 0.00 72 1018.9
20260506234519 30 297 3.5 4.3 0.00 0.00 0.00 75 1018.8
20260506233520 30 323 3.5 5.2 0.00 0.00 0.00 76 1018.6